Location: Calvin Observatory
(42.9309°N, 85.5886°W)
Time: 22:09:30
(UTC-04:00)

ISS - Visible Passes

Search period start: 28 July 2016 00:00
Search period end: 07 August 2016 00:00
Orbit: 401 x 404 km, 51.6° (Epoch: 28 July)

Date Brightness Start Highest point End Pass type
(mag) Time Alt. Az. Time Alt. Az. Time Alt. Az.
28 Jul -0.4 01:26:54 10° NW 01:29:11 17° N 01:30:08 16° NNE visible
28 Jul -0.7 03:08:08 17° ENE 03:08:08 17° ENE 03:09:15 10° E visible
28 Jul -3.3 04:41:16 24° WNW 04:42:57 53° SW 04:46:08 10° SE visible
28 Jul -2.0 22:55:49 10° W 22:58:56 42° NNW 23:02:04 10° NE visible
29 Jul -0.4 00:33:37 10° NW 00:35:59 18° N 00:38:12 11° NE visible
29 Jul -0.1 02:10:37 10° NW 02:10:46 11° NW 02:10:46 11° NW visible
29 Jul -3.1 22:02:42 10° WSW 22:05:56 71° NNW 22:09:12 10° NE visible
29 Jul -0.7 23:40:13 10° WNW 23:42:48 21° NNW 23:45:22 10° NE visible
30 Jul -0.4 01:17:40 10° NW 01:19:20 17° N 01:19:20 17° N visible
30 Jul -1.1 22:46:50 10° WNW 22:49:39 26° NNW 22:52:29 10° NE visible
31 Jul -0.5 00:24:34 10° NW 00:26:51 17° N 00:27:59 15° NNE visible
31 Jul -1.7 21:53:30 10° W 21:56:33 37° NNW 21:59:39 10° NE visible
31 Jul -0.5 23:31:19 10° NW 23:33:39 18° N 23:35:58 10° NE visible
01 Aug -0.3 01:08:12 10° NW 01:09:15 16° NNW 01:09:15 16° NNW visible
01 Aug -0.7 22:37:57 10° WNW 22:40:27 20° N 22:42:58 10° NE visible
02 Aug -0.8 00:15:16 10° NW 00:17:43 19° N 00:17:57 19° NNE visible
02 Aug -1.0 21:44:31 10° WNW 21:47:17 24° NNW 21:50:03 10° NE visible
02 Aug -0.6 23:22:12 10° NW 23:24:31 18° N 23:26:40 11° NE visible
03 Aug -0.2 00:58:36 10° NW 00:59:16 14° NW 00:59:16 14° NW visible
03 Aug -0.6 22:29:00 10° NW 22:31:18 18° N 22:33:36 10° NE visible
04 Aug -1.0 00:05:45 10° NW 00:08:00 24° N 00:08:00 24° N visible
04 Aug -0.7 21:35:38 10° WNW 21:38:05 19° N 21:40:32 10° NE visible
04 Aug -1.0 23:12:50 10° NW 23:15:21 20° N 23:16:45 16° NE visible
05 Aug -0.1 00:49:01 10° NW 00:49:20 12° NW 00:49:20 12° NW visible
05 Aug -0.8 22:19:48 10° NW 22:22:08 18° N 22:24:28 10° NE visible
05 Aug -1.3 23:56:08 10° NW 23:58:07 28° NNW 23:58:07 28° NNW visible
06 Aug -0.7 21:26:38 10° NW 21:28:55 17° N 21:31:12 10° NE visible
06 Aug -1.6 23:03:16 10° NW 23:06:07 27° NNE 23:06:54 24° NE visible
